RH
43 43 41 40 38 37 36 37 38 37 37 37 37 38 38 39 39 39 40 41 41 41 40 39 38 38 36 29 23 17 15 14 14 14 12 10 12 12 12 11 10 9 8 10 12 12 10 9 8 8 8 9 10 12 14 16 19 20 21 21 19 17 14 14 13 14 16 16 15 14 13 12 16 27 30 29 28 30 32 31 33 35 36 42 46 45 42 43
44 43 43 42 40 40 38 37 38 38 37 36 37 37 36 37 38 39 40 40 40 40 40 39 39 38 38 34 27 20 17 15 15 14 12 12 12 12 12 12 11 10 9 10 12 12 10 8 7 7 7 9 10 12 13 15 18 21 23 21 20 18 15 14 13 15 17 16 16 15 15 14 21 30 29 31 34 32 34 35 35 38 42 45 46 43 42 44
47 45 44 44 42 41 41 39 38 39 38 37 36 37 35 35 38 39 39 40 40 40 40 39 39 38 37 36 31 25 21 18 16 14 14 15 13 11 12 12 12 11 10 10 12 12 11 9 8 8 7 9 11 12 14 15 16 19 20 21 22 19 16 14 13 16 17 17 16 16 16 16 24 32 30 33 35 33 36 36 36 40 45 46 46 44 42 44
49 49 48 47 44 42 42 41 40 40 39 38 37 37 36 35 36 36 37 38 38 38 40 40 40 39 37 35 31 27 26 22 17 15 16 17 14 11 11 12 12 12 11 11 13 13 11 10 9 9 9 11 12 12 14 14 15 16 18 21 21 18 17 16 15 17 17 17 17 16 16 18 22 28 33 36 37 36 36 35 34 38 43 45 47 45 44 45
49 50 50 49 47 45 44 42 41 40 39 39 38 37 37 37 35 34 35 36 36 37 38 39 40 40 38 35 28 26 27 21 19 19 18 18 15 12 11 11 12 13 12 12 13 13 11 11 10 10 11 13 13 12 13 13 13 15 16 17 18 17 17 17 18 19 18 18 18 16 17 18 22 30 36 38 37 37 36 37 37 37 41 43 46 46 45 47
51 50 50 50 48 47 45 43 42 40 38 39 39 36 35 37 36 33 33 34 36 36 36 38 40 41 39 35 27 26 26 20 21 23 19 18 17 14 11 10 11 12 13 13 14 14 11 12 12 11 12 13 14 13 12 12 12 14 14 14 15 16 17 18 19 19 18 19 18 17 17 19 29 37 38 38 39 38 37 40 42 43 47 49 50 50 48 49
52 51 50 50 50 49 47 44 43 41 38 38 38 35 32 35 36 34 33 34 35 35 35 36 39 41 40 35 27 26 26 20 22 26 23 21 20 17 14 11 10 12 14 15 15 14 12 13 13 12 13 13 13 14 13 12 12 13 14 14 15 15 17 19 21 20 19 19 18 18 16 18 32 40 38 39 40 41 40 43 46 47 52 56 55 53 51 50
50 51 51 51 50 50 49 45 43 42 41 38 37 35 33 34 35 34 35 34 33 34 34 34 36 38 39 36 32 31 28 20 18 24 24 24 24 20 17 14 11 11 14 16 16 15 13 15 15 12 14 14 13 13 13 13 12 12 13 14 15 14 16 20 21 21 20 20 19 18 19 23 35 39 40 42 43 44 45 46 50 51 54 57 55 53 51 50
48 51 52 53 52 50 50 47 43 42 42 40 36 34 34 34 34 33 34 34 33 33 33 33 33 35 37 36 38 35 25 16 15 19 21 24 27 24 21 17 13 11 14 15 16 17 14 15 16 13 14 14 13 13 12 13 14 13 12 13 15 14 16 19 21 22 20 21 19 20 27 33 38 40 43 47 45 47 49 50 54 55 54 54 54 54 52 50
46 50 52 55 56 54 52 50 48 45 42 42 36 31 32 33 35 34 33 32 33 34 33 34 34 34 35 34 38 35 22 17 15 15 18 21 25 27 26 21 15 13 12 13 16 18 15 14 16 14 14 14 13 14 13 13 13 13 13 14 15 14 15 17 19 21 20 21 19 22 34 36 34 38 46 50 49 49 52 54 56 58 57 56 55 53 52 51
45 49 53 58 60 60 58 53 51 48 44 43 39 33 32 32 34 36 34 32 34 35 34 34 33 34 34 34 37 31 20 20 18 15 16 18 21 26 28 25 19 16 12 12 15 18 17 15 16 15 15 14 13 13 13 12 12 12 13 13 14 13 13 14 18 21 21 21 19 22 33 34 28 35 47 52 52 52 52 55 56 59 60 58 57 54 53 55
45 46 52 60 64 65 65 60 55 52 48 46 42 38 36 34 34 36 36 35 34 34 35 34 33 34 34 35 34 23 16 19 19 17 16 16 18 22 27 27 23 19 15 13 15 18 18 16 15 15 15 14 14 14 13 12 11 12 13 14 14 13 13 14 17 20 20 20 20 23 33 33 27 35 49 54 54 53 53 56 57 58 58 57 55 54 55 58
47 48 51 58 65 67 68 67 62 55 51 49 45 42 40 37 35 35 36 37 36 35 36 34 34 33 34 35 27 16 14 15 17 18 18 17 17 19 24 28 26 22 18 15 15 18 19 18 16 15 15 14 14 14 13 12 11 12 13 15 16 15 14 14 17 20 20 20 21 23 29 30 25 33 47 52 54 54 53 56 58 59 58 56 55 55 58 62
46 50 53 56 63 67 68 71 70 62 55 53 49 45 42 40 38 35 34 35 37 38 37 36 36 34 34 33 22 15 14 13 13 16 18 17 17 18 21 26 27 25 22 17 16 18 19 20 18 16 15 15 14 14 15 14 13 14 15 16 17 17 16 16 17 19 19 20 20 19 23 25 23 34 44 47 54 56 54 56 57 58 59 57 56 60 66 65
46 49 53 57 62 67 69 72 75 72 63 56 53 50 45 43 40 37 35 35 39 41 37 38 38 35 36 31 19 16 17 14 13 14 16 17 18 20 20 24 26 26 25 22 19 18 19 20 20 18 16 15 15 15 17 17 18 18 17 19 20 18 17 17 17 19 20 20 19 18 20 23 27 38 44 48 57 61 59 59 57 57 58 57 54 60 73 70
48 49 52 58 62 67 72 73 75 76 71 61 56 53 48 45 43 40 37 36 40 43 40 40 38 37 38 30 19 18 18 16 14 14 15 16 18 22 21 22 24 25 26 25 23 21 19 20 20 19 17 16 17 18 19 19 21 21 19 22 21 18 16 16 16 18 19 19 18 18 23 31 34 39 46 51 60 67 64 58 57 57 57 58 53 55 70 72
47 49 51 56 60 66 71 74 75 75 74 69 60 54 50 47 44 40 37 36 39 44 44 40 38 39 36 28 21 19 17 17 17 17 16 15 18 22 22 22 23 23 24 26 26 24 22 20 19 19 18 18 19 19 21 21 22 22 20 21 21 18 18 17 16 17 18 19 18 20 28 34 34 39 49 51 55 65 66 56 53 56 56 59 57 56 66 68
45 47 50 53 58 66 71 74 77 75 75 75 66 56 51 47 44 42 38 39 43 45 46 42 40 39 33 26 24 21 18 17 18 18 16 15 16 21 23 23 22 22 22 24 27 27 24 20 19 20 20 19 19 19 22 22 22 22 21 20 20 18 18 18 17 17 18 18 17 19 24 27 31 40 48 47 46 55 62 59 55 53 52 57 59 63 67 64
43 43 46 51 54 61 67 69 74 75 75 78 72 61 53 46 44 45 43 45 49 47 44 44 41 34 26 24 24 21 19 18 18 17 17 16 16 19 23 24 23 22 21 23 26 27 26 23 22 21 20 19 19 18 21 22 20 22 22 22 20 18 18 18 18 17 17 18 18 18 19 25 35 41 43 43 42 47 52 58 60 54 52 57 62 67 69 61
39 40 42 45 50 58 64 66 69 72 74 78 76 67 56 47 46 48 49 50 49 43 38 41 39 31 25 25 26 24 21 19 19 18 17 18 17 19 23 24 25 24 23 24 26 25 27 29 25 20 19 20 19 19 21 23 21 21 22 22 21 18 19 19 18 18 18 18 18 19 21 30 38 38 39 41 40 42 44 50 60 59 55 57 63 70 68 59
33 35 38 41 46 54 60 65 67 68 72 78 79 72 61 52 50 52 53 51 46 42 39 38 38 34 29 27 27 27 25 23 21 18 18 18 18 20 24 25 26 26 25 25 25 25 27 29 25 22 22 20 21 21 22 23 21 21 21 21 20 19 19 19 18 18 18 18 20 20 22 30 37 36 38 40 38 38 39 46 57 65 65 62 66 72 65 61
35 33 34 37 41 46 55 65 68 68 71 77 81 76 63 55 55 57 57 55 48 42 41 39 39 38 33 30 29 30 31 29 24 19 18 19 18 20 24 25 26 27 27 27 27 27 26 26 25 25 25 22 22 23 23 23 22 22 22 21 22 21 20 19 20 19 18 18 19 20 23 30 36 36 37 39 38 38 42 50 55 63 74 72 74 76 65 64
41 39 37 36 40 44 53 63 68 69 73 78 81 75 64 61 65 64 61 59 50 42 41 39 39 39 35 33 32 32 33 31 28 22 18 19 19 20 23 25 26 28 28 28 28 28 27 25 25 26 25 23 23 24 24 25 24 24 23 22 22 22 21 20 20 20 19 20 21 24 32 36 38 37 37 40 44 44 50 60 60 62 72 75 78 78 66 66
42 44 42 40 40 44 56 65 67 70 74 79 80 73 65 66 73 73 66 59 51 43 39 36 35 35 34 31 31 33 34 30 28 24 20 20 19 19 23 25 27 27 27 28 28 27 28 26 24 26 26 25 25 24 25 26 27 26 24 24 23 22 22 22 20 21 23 23 24 28 33 36 38 38 38 42 48 51 51 58 65 66 67 72 79 78 67 66
41 43 44 45 42 41 55 68 68 70 76 80 79 71 65 68 77 79 70 62 54 44 39 37 36 35 32 32 32 32 33 31 27 24 21 21 19 18 22 24 26 26 26 29 31 30 31 28 24 24 26 26 25 25 26 26 28 28 26 25 24 23 24 23 21 24 25 22 22 24 24 31 38 38 39 42 48 53 50 54 67 71 68 70 78 80 72 68
39 41 44 47 45 41 51 66 68 71 78 80 77 70 67 72 80 79 72 68 58 43 37 39 39 36 33 34 34 32 33 31 25 23 22 21 19 18 21 23 25 26 26 29 32 32 31 29 24 24 26 26 26 25 25 26 27 28 27 26 25 25 25 24 22 23 25 23 22 21 20 29 40 39 39 43 47 51 50 53 64 71 73 73 78 83 78 71
40 43 46 48 49 48 53 63 69 74 78 78 74 68 69 78 82 77 76 75 65 50 44 41 40 40 37 33 32 32 34 30 23 24 24 22 20 19 20 23 24 25 25 29 33 32 30 31 28 25 26 27 27 26 25 25 27 27 27 27 27 26 26 25 24 24 25 25 24 23 21 27 39 41 40 43 48 52 52 54 59 68 76 76 81 87 82 75
51 51 51 49 50 53 57 65 71 74 77 77 72 67 72 81 81 75 76 74 66 58 53 47 41 41 41 38 33 30 31 29 25 26 24 22 22 19 21 23 23 24 23 26 32 31 30 32 30 26 25 27 26 26 26 25 26 26 26 27 27 27 27 26 25 25 25 24 23 26 25 26 36 44 42 43 49 53 54 55 56 64 72 75 83 88 81 75
62 60 56 52 52 55 62 69 73 74 77 76 70 69 78 83 81 81 82 74 68 66 60 52 45 42 42 42 37 31 30 30 27 26 23 23 23 20 22 24 24 25 23 24 30 31 30 31 30 27 26 27 26 26 27 25 26 26 25 26 27 28 28 27 26 24 24 25 23 24 26 26 37 46 44 46 52 50 51 54 55 58 65 73 83 85 76 73
68 67 64 62 58 56 61 70 73 74 79 77 67 72 88 90 86 91 87 75 75 77 66 56 51 48 45 43 40 34 31 31 30 28 26 24 23 22 23 24 25 26 26 26 29 30 29 29 30 28 26 27 27 27 27 26 27 27 26 26 27 29 30 30 31 27 26 28 22 22 27 27 33 43 44 46 47 44 45 51 55 57 63 69 77 80 76 74
72 71 70 70 65 61 65 74 79 77 79 74 66 74 91 93 92 94 80 68 78 84 74 65 58 53 49 46 42 37 34 35 33 30 28 26 26 27 26 26 26 28 29 28 28 28 28 30 32 29 27 26 27 29 28 27 28 28 26 26 27 31 31 29 31 28 28 28 22 23 30 27 29 38 43 43 40 39 41 44 49 55 60 66 73 78 79 77
70 73 72 71 68 69 74 83 89 89 82 70 65 75 88 93 97 90 73 69 84 90 84 78 69 59 54 50 44 37 37 39 35 30 28 27 29 30 28 27 28 30 32 31 30 28 28 30 31 30 29 28 28 30 31 30 29 29 28 26 29 32 31 32 33 32 31 30 26 26 29 30 32 36 41 41 38 37 39 40 45 53 59 64 70 74 75 75
71 73 73 76 78 75 79 88 96 98 86 67 67 81 89 96 95 80 71 77 88 92 87 82 78 68 59 54 47 39 39 40 36 32 29 28 31 32 29 28 28 31 34 32 30 31 31 32 30 30 31 29 28 29 31 31 29 29 28 27 30 33 36 37 36 35 33 30 31 30 29 33 37 38 40 39 37 37 39 41 46 54 58 62 65 67 71 75
72 70 71 78 85 82 83 94 99 98 86 67 70 84 89 94 88 75 76 81 86 91 88 82 81 74 63 56 46 39 40 40 37 34 32 31 34 34 31 29 27 31 35 32 30 31 34 36 32 30 31 28 28 28 29 31 29 28 28 27 29 31 34 36 36 35 34 36 38 33 32 40 44 44 45 40 39 44 46 47 52 59 63 64 65 68 72 75
76 72 72 73 81 85 90 96 98 96 82 67 74 86 87 89 84 79 85 85 85 92 89 84 82 76 69 59 45 39 40 41 38 36 35 34 35 35 32 30 28 30 32 31 32 29 30 33 31 30 30 28 29 29 29 32 31 29 29 27 28 29 32 36 37 37 36 40 44 38 41 52 50 49 49 43 44 50 51 52 56 62 67 67 68 72 72 72
83 72 72 76 80 88 93 95 97 92 75 67 79 86 84 85 82 80 86 86 87 91 90 86 83 79 73 59 45 40 41 43 42 38 37 35 35 34 32 29 27 28 30 32 34 30 28 31 31 30 30 29 29 30 30 32 33 31 30 28 26 27 34 36 34 38 37 35 40 45 53 57 52 52 52 48 51 54 54 56 56 59 63 64 69 75 75 72
84 69 69 78 83 88 91 91 93 86 71 70 81 82 81 82 77 75 82 86 89 90 89 89 85 82 78 63 49 42 40 45 44 39 39 38 35 33 30 29 28 26 28 31 32 32 31 32 31 29 30 30 29 29 30 32 33 31 28 28 26 26 33 35 35 42 39 32 39 54 62 60 55 57 57 56 60 60 60 60 57 58 61 61 68 78 79 75
82 76 74 78 82 87 89 89 87 78 70 74 82 85 86 82 72 71 80 89 92 89 87 91 89 86 81 69 57 48 42 45 46 41 39 38 35 32 28 28 28 26 26 28 30 31 31 32 32 30 31 32 30 31 33 31 30 29 26 27 29 29 30 32 36 40 40 41 50 59 64 60 54 57 59 59 60 61 63 64 60 60 60 61 66 74 78 78
79 81 81 81 83 86 87 86 82 74 73 81 88 91 92 84 73 71 80 89 94 90 86 90 91 86 82 72 63 59 49 45 48 46 41 38 35 32 29 28 27 25 25 25 27 31 30 32 34 30 29 32 32 31 33 30 29 31 30 28 29 29 27 28 33 38 45 57 59 58 63 61 50 50 56 54 52 53 57 60 59 60 61 62 64 68 71 74
76 78 79 78 81 85 85 83 77 71 77 86 90 91 91 85 75 73 79 87 92 90 83 85 88 85 82 73 65 65 58 50 49 47 43 40 37 34 32 29 27 25 25 24 26 30 28 29 36 35 29 31 33 29 28 30 30 32 33 30 28 27 26 28 32 36 46 61 63 56 57 55 46 45 49 48 48 48 49 52 55 59 63 64 65 69 71 71
77 78 77 75 75 79 80 76 69 68 78 88 90 89 86 81 76 77 81 84 87 86 80 83 87 84 81 76 69 67 64 58 52 47 44 40 38 37 34 31 30 26 27 27 25 29 31 30 38 40 30 26 29 28 27 29 31 31 32 30 27 28 28 29 33 36 41 52 61 58 53 51 49 46 45 46 49 49 49 51 51 55 62 67 70 74 74 73
85 84 86 81 72 70 71 65 62 70 82 88 89 86 81 76 76 80 81 84 86 82 78 82 88 85 83 83 79 73 69 65 57 50 47 42 40 39 34 31 32 28 29 29 26 31 37 35 37 41 35 28 29 31 29 29 29 31 31 28 29 32 29 26 30 36 41 48 55 55 52 52 52 49 46 47 50 52 54 56 55 56 61 68 76 79 77 75
90 87 85 78 65 61 60 57 63 77 84 85 87 85 77 74 77 80 81 85 86 81 80 88 91 89 88 87 85 80 73 67 58 51 49 45 40 38 35 33 32 31 31 29 28 32 35 33 36 42 43 36 32 32 30 28 29 31 30 29 30 31 29 27 28 34 43 50 51 51 52 53 53 51 50 50 54 55 57 59 61 61 63 71 77 79 77 76
90 84 76 67 60 59 59 62 71 81 83 85 89 84 78 76 77 78 81 85 85 83 87 94 92 91 92 88 86 85 75 64 59 54 49 45 42 38 36 34 32 33 31 28 29 31 32 34 37 42 47 42 37 36 34 31 31 30 29 28 28 29 31 32 33 34 38 44 44 44 50 53 53 53 53 54 57 59 59 62 63 63 66 71 76 77 75 75
89 85 79 74 69 65 64 68 76 82 83 85 86 82 81 80 78 79 81 83 83 84 90 95 90 87 91 89 88 88 78 67 64 59 50 47 48 43 37 34 33 32 31 29 28 28 33 38 37 42 53 54 47 44 41 36 32 30 29 29 28 30 32 33 37 36 34 38 41 40 45 51 54 56 58 57 59 61 63 65 66 66 68 70 73 74 74 75
90 91 92 91 86 77 70 71 78 83 83 81 81 82 84 83 81 81 82 84 88 89 92 92 87 83 85 87 89 89 81 71 65 61 53 49 51 50 42 37 34 31 32 33 30 30 38 40 37 40 48 50 46 42 39 36 33 31 30 30 29 30 31 35 40 38 34 39 44 43 44 51 54 55 57 57 57 60 62 64 68 69 70 70 72 73 74 75
96 96 96 97 96 87 79 79 82 83 81 82 84 86 85 84 85 85 85 89 93 95 95 91 86 86 86 86 88 88 82 75 66 61 56 51 55 57 48 42 37 32 35 36 31 34 39 38 38 40 38 39 41 42 40 38 35 32 30 30 30 31 33 35 36 37 37 40 45 46 47 51 53 53 54 55 56 58 59 61 65 69 72 73 73 73 75 75
98 98 97 98 95 86 80 82 81 80 82 85 88 88 86 84 87 90 90 92 93 93 95 93 87 87 86 82 83 85 83 77 70 64 59 55 59 61 53 47 43 38 39 38 32 35 39 36 39 42 39 41 47 49 49 47 43 39 35 32 31 32 34 34 32 36 38 34 36 44 48 49 52 54 54 54 55 56 59 62 64 67 70 73 74 74 75 74
98 99 99 100 95 85 80 80 79 82 85 87 87 87 87 87 89 92 91 89 89 91 94 93 88 84 82 78 78 82 83 76 70 67 62 56 58 61 58 54 49 44 41 36 33 36 37 38 43 45 43 46 52 55 54 53 52 49 44 40 37 34 34 32 33 38 39 35 37 43 48 50 53 56 56 56 57 60 65 68 68 69 71 72 74 75 75 74
96 96 95 95 94 91 88 86 86 89 89 87 85 85 86 87 87 88 86 82 87 92 91 91 91 88 86 81 75 76 79 75 71 67 62 57 58 61 61 59 56 54 45 35 33 34 34 41 49 49 45 46 52 57 56 55 56 54 51 49 43 37 34 34 37 42 43 44 44 45 49 52 54 57 58 59 62 65 69 72 72 72 72 73 75 75 75 74
94 94 92 92 91 92 96 96 95 95 92 90 89 87 88 86 83 84 85 81 85 90 88 88 89 88 87 83 76 74 75 75 73 66 59 58 57 58 60 60 60 60 52 39 35 35 36 45 52 49 45 47 53 58 57 56 57 54 52 51 47 41 40 41 43 44 43 45 48 48 50 53 54 58 59 60 63 66 69 71 72 74 75 74 73 74 74 73
93 93 92 92 89 89 94 98 97 96 93 89 88 86 85 85 83 84 85 81 81 84 84 84 84 83 84 83 79 76 72 71 71 66 61 60 60 59 59 59 60 62 58 48 41 40 41 47 52 49 46 54 62 61 59 59 58 54 51 51 50 48 48 47 46 45 43 43 45 45 45 48 53 57 59 60 62 64 66 67 68 71 73 74 73 73 73 73